Granite Falls, MN

7:56 AM CST on December 12, 2019 (GMT -0600)
Granite Falls

Weather History for KGDB - October, 2019

Change the Weather History Date:

Sunday, October 27, 2019

  Actual Average (KMVE) Record (KMVE)
Temperature  
Mean Temperature 36 °F -  
Max Temperature 43 °F 58 °F 86 °F (1955)
Min Temperature 30 °F 34 °F 13 °F (1976)
Degree Days  
Heating Degree Days 28    
Moisture  
Dew Point 31 °F    
Average Humidity 76    
Maximum Humidity 91    
Minimum Humidity 64    
Precipitation  
Precipitation 0.00 in - - ()
Sea Level Pressure  
Sea Level Pressure 30.00 in    
Wind  
Wind Speed 15 mph (WNW)    
Max Wind Speed 21 mph    
Max Gust Speed 32 mph    
Visibility 9 miles    
Events Rain    
Averages and records for this station are not official NWS values.
T = Trace of Precipitation, MM = Missing Value Source: NWS Daily Summary

Daily Weather History Graph

Daily Weather History Graph

Search for Another Location

Airport or City:

Astronomy

Oct. 27, 2019 Rise Set
Actual Time 7:53 AM CDT 6:18 PM CDT
Civil Twilight 7:23 AM CDT 6:48 PM CDT
Nautical Twilight 6:48 AM CDT 7:22 PM CDT
Astronomical Twilight 6:14 AM CDT 7:56 PM CDT
Moon 6:58 AM CDT (10/27) 6:31 PM CDT (10/27)
Length of Visible Light 11h 25m
Length of Day
10h 25m
Waning Crescent, 0% of the Moon is Illuminated
Oct 27
Waning Crescent
Oct 27
New
Nov 4
First Quarter
Nov 12
Full
Nov 19
Last Quarter

Hourly Weather History & Observations

Time (CDT) Temp. Windchill Dew Point Humidity Pressure Visibility Wind Dir Wind Speed Gust Speed Precip Events Conditions
12:15 AM 42.1 °F 33.9 °F 34.9 °F 76% 29.74 in 7.0 mi NW 17.3 mph 24.2 mph N/A   Clear
12:16 AM 42.1 °F 34.5 °F 34.9 °F 76% 29.74 in 7.0 mi NW 15.0 mph 24.2 mph N/A   Clear
12:35 AM 41.9 °F 34.6 °F 34.7 °F 76% 29.75 in 10.0 mi NW 13.8 mph 20.7 mph N/A   Clear
12:36 AM 41.9 °F 34.6 °F 34.7 °F 76% 29.74 in 10.0 mi NW 13.8 mph 20.7 mph N/A   Clear
12:57 AM 41.9 °F 34.6 °F 34.7 °F 76% 29.75 in 10.0 mi NW 13.8 mph 23.0 mph N/A   Clear
1:16 AM 41.5 °F 35.0 °F 34.7 °F 77% 29.75 in 10.0 mi NW 11.5 mph 16.1 mph N/A   Clear
1:35 AM 41.2 °F 34.5 °F 34.9 °F 78% 29.77 in 10.0 mi NW 11.5 mph 18.4 mph N/A   Scattered Clouds
1:55 AM 42.4 °F 34.1 °F 35.6 °F 77% 29.79 in 10.0 mi NW 18.4 mph 24.2 mph N/A   Overcast
1:56 AM 42.4 °F 34.4 °F 35.6 °F 77% 29.79 in 10.0 mi WNW 17.3 mph 24.2 mph N/A   Overcast
2:18 AM 43.3 °F 35.2 °F 35.8 °F 75% 29.81 in 10.0 mi WNW 18.4 mph 24.2 mph N/A   Overcast
2:37 AM 42.1 °F 33.1 °F 35.2 °F 77% 29.83 in 10.0 mi NW 20.7 mph 32.2 mph N/A   Overcast
2:56 AM 41.9 °F 33.7 °F 35.8 °F 79% 29.85 in 10.0 mi WNW 17.3 mph 20.7 mph N/A   Overcast
3:15 AM 41.2 °F 33.0 °F 35.6 °F 81% 29.85 in 10.0 mi WNW 16.1 mph 25.3 mph N/A   Overcast
3:16 AM 41.2 °F 32.7 °F 35.6 °F 81% 29.85 in 10.0 mi WNW 17.3 mph 25.3 mph N/A   Overcast
3:35 AM 41.0 °F 32.5 °F 35.6 °F 81% 29.86 in 10.0 mi WNW 17.3 mph 27.6 mph N/A   Overcast
3:57 AM 41.0 °F 32.2 °F 35.6 °F 81% 29.86 in 10.0 mi WNW 18.4 mph 25.3 mph N/A   Overcast
4:16 AM 41.0 °F 32.2 °F 35.6 °F 81% 29.87 in 10.0 mi NW 18.4 mph 26.5 mph N/A   Overcast
4:35 AM 41.0 °F 32.8 °F 35.6 °F 81% 29.87 in 10.0 mi NW 16.1 mph 26.5 mph N/A   Overcast
4:36 AM 41.0 °F 33.1 °F 35.6 °F 81% 29.87 in 10.0 mi NW 15.0 mph 26.5 mph N/A   Overcast
4:55 AM 41.0 °F 32.5 °F 35.1 °F 79% 29.88 in 10.0 mi NW 17.3 mph 27.6 mph N/A   Overcast
4:56 AM 41.0 °F 32.2 °F 35.1 °F 79% 29.88 in 10.0 mi NW 18.4 mph 27.6 mph N/A   Overcast
5:19 AM 41.0 °F 31.9 °F 34.9 °F 79% 29.89 in 10.0 mi NW 19.6 mph 26.5 mph N/A   Overcast
5:36 AM 41.0 °F 32.2 °F 34.7 °F 78% 29.89 in 10.0 mi NW 18.4 mph 24.2 mph N/A   Overcast
5:56 AM 41.0 °F 33.5 °F 34.3 °F 77% 29.88 in 10.0 mi NW 13.8 mph 20.7 mph N/A   Scattered Clouds
6:15 AM 41.0 °F 31.9 °F 34.2 °F 77% 29.89 in 7.0 mi NW 19.6 mph 26.5 mph N/A   Mostly Cloudy
6:16 AM 41.0 °F 31.9 °F 34.2 °F 77% 29.89 in 7.0 mi NW 19.6 mph 26.5 mph N/A   Mostly Cloudy
6:35 AM 41.0 °F 32.8 °F 34.0 °F 76% 29.91 in 10.0 mi NW 16.1 mph 23.0 mph N/A   Overcast
6:39 AM 41.0 °F 32.2 °F 34.0 °F 76% 29.91 in 10.0 mi NW 18.4 mph 23.0 mph N/A   Overcast
6:58 AM 40.6 °F 33.0 °F 33.6 °F 76% 29.92 in 10.0 mi NW 13.8 mph 19.6 mph N/A   Overcast
7:15 AM 40.5 °F 32.5 °F 33.8 °F 77% 29.93 in 10.0 mi NW 15.0 mph 23.0 mph N/A   Overcast
7:35 AM 40.5 °F 32.5 °F 33.8 °F 77% 29.94 in 10.0 mi NW 15.0 mph 23.0 mph N/A   Overcast
7:36 AM 40.5 °F 32.8 °F 33.8 °F 77% 29.94 in 10.0 mi NW 13.8 mph 23.0 mph N/A   Overcast
7:55 AM 40.5 °F 32.8 °F 33.8 °F 77% 29.95 in 10.0 mi WNW 13.8 mph 19.6 mph N/A   Overcast
7:56 AM 40.5 °F 32.5 °F 33.8 °F 77% 29.95 in 10.0 mi WNW 15.0 mph 19.6 mph N/A   Overcast
8:18 AM 40.3 °F 32.6 °F 33.4 °F 77% 29.97 in 10.0 mi NW 13.8 mph - N/A   Overcast
8:36 AM 40.3 °F 31.6 °F 33.6 °F 77% 29.99 in 10.0 mi WNW 17.3 mph - N/A   Overcast
8:55 AM 40.3 °F 32.2 °F 33.1 °F 75% 29.98 in 10.0 mi NW 15.0 mph 21.9 mph N/A   Overcast
8:56 AM 40.3 °F 32.6 °F 33.1 °F 75% 29.98 in 10.0 mi NW 13.8 mph 21.9 mph N/A   Overcast
9:15 AM 40.3 °F 32.6 °F 33.3 °F 76% 29.99 in 10.0 mi NW 13.8 mph 21.9 mph N/A   Light Drizzle
9:16 AM 40.3 °F 32.2 °F 33.4 °F 77% 29.99 in 10.0 mi NW 15.0 mph 21.9 mph N/A   Light Drizzle
9:35 AM 40.1 °F 32.0 °F 34.5 °F 80% 30.00 in 7.0 mi WNW 15.0 mph 19.6 mph N/A   Overcast
9:57 AM 39.2 °F 30.5 °F 34.5 °F 83% 30.00 in 10.0 mi WNW 16.1 mph 21.9 mph N/A   Overcast
10:15 AM 39.2 °F 30.8 °F 35.2 °F 86% 30.02 in 10.0 mi WNW 15.0 mph 19.6 mph N/A Rain Light Rain
10:35 AM 38.3 °F 29.0 °F 35.1 °F 88% 30.02 in 10.0 mi WNW 17.3 mph 21.9 mph N/A Rain Light Rain
10:36 AM 38.3 °F 29.0 °F 35.1 °F 88% 30.02 in 10.0 mi WNW 17.3 mph 21.9 mph N/A Rain Light Rain
10:55 AM 38.5 °F 31.1 °F 35.8 °F 90% 30.02 in 10.0 mi WNW 11.5 mph 17.3 mph N/A Rain Light Rain
10:56 AM 38.5 °F 30.7 °F 36.0 °F 91% 30.02 in 10.0 mi WNW 12.7 mph 17.3 mph N/A Rain Light Rain
11:19 AM 39.4 °F 31.1 °F 36.5 °F 89% 30.02 in 10.0 mi WNW 15.0 mph 19.6 mph N/A   Overcast
11:36 AM 40.1 °F 32.7 °F 37.0 °F 89% 30.03 in 10.0 mi WNW 12.7 mph - N/A   Overcast
11:56 AM 39.2 °F 31.2 °F 35.6 °F 87% 30.03 in 10.0 mi WNW 13.8 mph 21.9 mph N/A   Overcast
12:15 PM 39.9 °F 31.4 °F 35.8 °F 85% 30.04 in 10.0 mi WNW 16.1 mph - N/A   Overcast
12:35 PM 40.1 °F 32.7 °F 34.7 °F 81% 30.05 in 10.0 mi WNW 12.7 mph 23.0 mph N/A   Overcast
12:39 PM 40.1 °F 32.0 °F 34.9 °F 82% 30.05 in 7.0 mi WNW 15.0 mph 23.0 mph N/A   Overcast
12:57 PM 40.1 °F 31.6 °F 34.7 °F 81% 30.04 in 10.0 mi WNW 16.1 mph 20.7 mph N/A   Overcast
1:16 PM 39.2 °F 30.5 °F 32.9 °F 78% 30.05 in 10.0 mi WNW 16.1 mph 21.9 mph N/A   Overcast
1:35 PM 39.4 °F 31.4 °F 33.1 °F 78% 30.05 in 10.0 mi WNW 13.8 mph 19.6 mph N/A   Overcast
1:36 PM 39.6 °F 31.3 °F 33.3 °F 78% 30.05 in 10.0 mi WNW 15.0 mph 21.9 mph N/A   Overcast
1:55 PM 39.2 °F 31.6 °F 32.2 °F 76% 30.06 in 7.0 mi WNW 12.7 mph 20.7 mph N/A   Overcast
1:56 PM 39.4 °F 31.4 °F 32.2 °F 75% 30.06 in 10.0 mi WNW 13.8 mph 20.7 mph N/A   Overcast
2:19 PM 38.7 °F 29.5 °F 32.0 °F 77% 30.06 in 7.0 mi WNW 17.3 mph 23.0 mph N/A   Overcast
2:36 PM 39.2 °F 30.8 °F 31.8 °F 75% 30.06 in 7.0 mi WNW 15.0 mph 20.7 mph N/A   Overcast
2:56 PM 39.2 °F 30.2 °F 31.6 °F 74% 30.06 in 10.0 mi WNW 17.3 mph 20.7 mph N/A   Overcast
3:15 PM 39.0 °F 29.6 °F 30.2 °F 71% 30.06 in 10.0 mi WNW 18.4 mph 21.9 mph N/A   Overcast
3:35 PM 39.2 °F 30.5 °F 29.8 °F 69% 30.07 in 10.0 mi WNW 16.1 mph - N/A   Overcast
3:39 PM 39.2 °F 30.5 °F 29.5 °F 68% 30.06 in 10.0 mi WNW 16.1 mph 20.7 mph N/A   Overcast
3:58 PM 38.7 °F 29.8 °F 29.7 °F 70% 30.07 in 10.0 mi WNW 16.1 mph 21.9 mph N/A   Overcast
4:15 PM 38.5 °F 29.6 °F 29.3 °F 70% 30.06 in 10.0 mi WNW 16.1 mph - N/A   Overcast
4:35 PM 38.7 °F 30.1 °F 29.5 °F 70% 30.07 in 10.0 mi WNW 15.0 mph 19.6 mph N/A   Overcast
4:36 PM 38.7 °F 30.5 °F 29.5 °F 70% 30.07 in 10.0 mi WNW 13.8 mph 19.6 mph N/A   Overcast
4:55 PM 38.3 °F 29.7 °F 29.3 °F 70% 30.08 in 10.0 mi WNW 15.0 mph 18.4 mph N/A   Overcast
5:18 PM 37.9 °F 30.5 °F 28.2 °F 68% 30.09 in 10.0 mi WNW 11.5 mph - N/A   Overcast
5:36 PM 37.4 °F 28.2 °F 27.9 °F 68% 30.09 in 10.0 mi WNW 16.1 mph 21.9 mph N/A   Overcast
5:55 PM 37.0 °F 28.5 °F 27.9 °F 69% 30.09 in 7.0 mi WNW 13.8 mph - N/A   Overcast
6:15 PM 36.7 °F 28.0 °F 27.1 °F 68% 30.08 in 10.0 mi WNW 13.8 mph 17.3 mph N/A   Overcast
6:16 PM 36.5 °F 28.2 °F 27.1 °F 69% 30.08 in 10.0 mi WNW 12.7 mph 17.3 mph N/A   Overcast
6:35 PM 36.5 °F 27.4 °F 25.5 °F 64% 30.09 in 10.0 mi WNW 15.0 mph 19.6 mph N/A   Overcast
6:40 PM 36.5 °F 28.2 °F 25.7 °F 65% 30.09 in 10.0 mi WNW 12.7 mph - N/A   Overcast
6:57 PM 35.6 °F 28.6 °F 25.7 °F 67% 30.09 in 10.0 mi WNW 9.2 mph - N/A   Mostly Cloudy
7:15 PM 34.3 °F 28.4 °F 26.2 °F 72% 30.09 in 7.0 mi West 6.9 mph - N/A   Mostly Cloudy
7:35 PM 34.0 °F - 27.3 °F 77% 30.10 in 7.0 mi Calm Calm - N/A   Overcast
7:55 PM 34.0 °F - 27.7 °F 78% 30.10 in 7.0 mi Calm Calm - N/A   Overcast
7:56 PM 34.0 °F - 27.5 °F 77% 30.10 in 7.0 mi Calm Calm - N/A   Overcast
8:18 PM 34.7 °F 28.1 °F 26.1 °F 71% 30.11 in 7.0 mi West 8.1 mph - N/A   Overcast
8:37 PM 34.2 °F 25.7 °F 24.6 °F 68% 30.11 in 10.0 mi WNW 11.5 mph - N/A   Scattered Clouds
8:55 PM 34.0 °F 26.6 °F 24.4 °F 68% 30.13 in 10.0 mi West 9.2 mph - N/A   Clear
8:56 PM 34.0 °F 26.6 °F 24.4 °F 68% 30.13 in 10.0 mi West 9.2 mph - N/A   Clear
9:15 PM 33.3 °F 24.6 °F 24.1 °F 69% 30.14 in 7.0 mi WNW 11.5 mph - N/A   Clear
9:16 PM 33.3 °F 24.6 °F 23.9 °F 69% 30.14 in 7.0 mi WNW 11.5 mph - N/A   Clear
9:35 PM 32.9 °F 24.7 °F 23.4 °F 68% 30.14 in 7.0 mi WNW 10.4 mph - N/A   Clear
9:57 PM 32.4 °F 23.0 °F 23.0 °F 68% 30.14 in 10.0 mi WNW 12.7 mph - N/A   Mostly Cloudy
10:16 PM 32.0 °F 23.6 °F 22.5 °F 68% 30.15 in 10.0 mi WNW 10.4 mph - N/A   Mostly Cloudy
10:35 PM 30.9 °F 23.5 °F 22.5 °F 71% 30.15 in 10.0 mi WNW 8.1 mph - N/A   Scattered Clouds
10:36 PM 30.9 °F 23.5 °F 22.5 °F 71% 30.15 in 10.0 mi West 8.1 mph - N/A   Scattered Clouds
10:55 PM 32.0 °F 25.6 °F 22.8 °F 69% 30.16 in 10.0 mi WNW 6.9 mph - N/A   Mostly Cloudy
10:56 PM 32.0 °F 24.8 °F 22.8 °F 69% 30.16 in 10.0 mi WNW 8.1 mph - N/A   Mostly Cloudy
11:19 PM 32.0 °F 25.6 °F 23.0 °F 69% 30.16 in 10.0 mi West 6.9 mph - N/A   Overcast
11:36 PM 32.0 °F 25.6 °F 23.4 °F 70% 30.15 in 10.0 mi West 6.9 mph - N/A   Overcast
11:56 PM 32.0 °F 26.4 °F 24.1 °F 73% 30.16 in 10.0 mi West 5.8 mph - N/A   Overcast